[[{"header":{"parameterUnit":"m.s-1","parameterCategory":1,"la1":30.2991,"la2":30.254,"lo1":-89.0895,"lo2":-89.0444,"dy":0.0017,"dx":0.0017,"nx":28,"ny":28,"refTime":"2025-12-14T09:00:00:Z","depth":0,"parameterNumber":2,"parameterNumberName":"U-component_of_WINDS"},"data":[0,0,0,0,0,0,0,0,0,0,0,0,0,0,0,0,0,0,0,0,0,0,0,0,0,0,0,0,0,0,0,0,0,0,0,0,0,0,0,0,0,0,0,0,0,0,0,0,0,0,0,0,0,0,0,0,0,0,-1.6384,-1.6384,0,-1.6419,-1.6419,-1.642,-1.6389,-1.6388,-1.6387,-1.6386,-1.642,-1.6422,-1.6424,0,0,0,0,0,0,0,0,0,0,0,0,0,-1.6291,-1.6293,-1.6384,-1.6384,-1.6385,-1.6419,-1.6419,-1.642,-1.639,-1.6388,-1.6387,-1.6385,-1.6419,-1.6422,-1.6424,0,0,0,0,0,0,0,0,0,0,0,0,0,-1.6329,-1.6293,-1.6384,-1.6374,-1.6374,-1.6419,-1.6419,-1.642,-1.639,-1.6388,-1.6386,-1.6385,-1.6418,-1.6421,-1.6424,-1.6481,0,0,-1.6434,-1.6435,0,0,0,0,0,0,0,0,-1.6327,-1.6332,-1.6375,-1.6375,-1.6374,-1.6398,-1.6399,-1.644,-1.639,-1.6384,-1.6386,-1.6384,-1.6414,-1.6417,-1.6428,-1.6482,-1.6484,-1.6434,-1.6436,-1.6437,-1.6438,0,0,0,0,0,0,0,-1.6324,-1.6331,-1.6398,-1.6376,-1.6375,-1.6368,-1.6371,-1.6406,-1.6409,-1.6384,-1.6382,-1.6387,-1.6413,-1.6425,-1.6428,-1.6484,-1.6434,-1.6437,-1.6439,-1.644,-1.6587,-1.6589,0,0,0,0,0,0,-1.6323,-1.6329,-1.6397,-1.6399,-1.6346,-1.6371,-1.6375,-1.6392,-1.6408,-1.6409,-1.6388,-1.6385,-1.6421,-1.6425,-1.6429,-1.6496,-1.6437,-1.644,-1.6442,-1.6585,-1.6587,-1.659,0,0,0,0,0,0,-1.6321,-1.6329,-1.6395,-1.6363,-1.6371,-1.6374,-1.6394,-1.6394,-1.6405,-1.6411,-1.6411,-1.64,-1.6419,-1.6425,-1.6468,-1.6497,-1.6441,-1.6444,-1.6583,-1.6586,-1.6589,-1.6631,0,0,0,0,0,0,-1.6318,-1.6329,-1.635,-1.6364,-1.6373,-1.6434,-1.6396,-1.6396,-1.6411,-1.6407,-1.6422,-1.6423,-1.6418,-1.6464,-1.6471,-1.65,-1.6447,-1.658,-1.6584,-1.6588,-1.6627,-1.6635,-1.6642,0,0,0,0,0,-1.6315,-1.636,-1.6351,-1.636,-1.64,-1.6436,-1.6441,-1.6435,-1.6413,-1.6435,-1.6439,-1.6422,-1.6493,-1.6469,-1.6477,-1.6507,-1.6578,-1.6583,-1.6587,-1.6623,-1.6633,-1.6642,0,0,0,0,0,0,-1.6348,-1.6362,-1.6352,-1.6403,-1.6419,-1.643,-1.6457,-1.6446,-1.6467,-1.6462,-1.6454,-1.6458,-1.6503,-1.651,-1.6482,-1.6563,-1.6532,-1.6539,-1.6557,-1.6566,-1.6573,-1.657,-1.6449,0,0,0,0,0,-1.6362,-1.639,-1.64,-1.6444,-1.6452,-1.6454,-1.6469,-1.6464,-1.6479,-1.6485,-1.6492,-1.6508,-1.6533,-1.655,-1.6574,-1.6628,-1.6631,-1.6653,-1.6661,-1.6667,-1.6672,-1.6701,-1.6711,-1.6605,-1.6605,-1.6605,0,0,-1.639,-1.64,-1.6419,-1.6451,-1.6462,-1.6492,-1.6459,-1.6491,-1.6513,-1.649,-1.6531,-1.6537,-1.6554,-1.6603,-1.6624,-1.6609,-1.6702,-1.6673,-1.6677,-1.6679,-1.6707,-1.6717,-1.6726,-1.6608,-1.6607,-1.6607,0,0,-1.6455,-1.6466,-1.6504,-1.6517,-1.6535,-1.6535,-1.6545,-1.6559,-1.6562,-1.6604,-1.6587,-1.6613,-1.6657,-1.667,-1.6682,-1.6754,-1.6739,-1.6762,-1.6801,-1.6829,-1.6837,-1.6845,-1.687,-1.6879,-1.6767,-1.6768,-1.6768,0,-1.6487,-1.653,-1.6525,-1.6559,-1.6573,-1.6555,-1.6593,-1.6606,-1.663,-1.6641,-1.6624,-1.668,-1.669,-1.6741,-1.6759,-1.677,-1.678,-1.6759,-1.6837,-1.6844,-1.6851,-1.6875,-1.6884,-1.677,-1.677,-1.677,-1.6769,0,-1.6569,-1.6599,-1.6628,-1.6653,-1.6671,-1.6707,-1.6707,-1.6726,-1.6719,-1.6722,-1.6765,-1.6776,-1.6802,-1.6815,-1.6808,-1.6866,-1.6856,-1.6838,-1.6807,-1.6864,-1.6886,-1.6895,-1.6774,-1.6773,-1.6772,-1.6771,0,0,-1.6654,-1.6677,-1.6687,-1.6699,-1.6718,-1.6742,-1.6777,-1.6803,-1.682,-1.6838,-1.6867,-1.6906,-1.689,-1.6904,-1.6899,-1.6924,-1.698,-1.6903,-1.6904,-1.6917,-1.7044,-1.7056,-1.7067,-1.6971,-1.6973,-1.6974,-1.7042,0,-1.6719,-1.6781,-1.6778,-1.6836,-1.6864,-1.6848,-1.6878,-1.6894,-1.6898,-1.6922,-1.6926,-1.6953,-1.6931,-1.6939,-1.6963,-1.6968,-1.7005,-1.6963,-1.6998,-1.6999,-1.6993,-1.7079,-1.7092,-1.7156,-1.7051,-1.7053,-1.7054,0,-1.6804,-1.6826,-1.6886,-1.6902,-1.6914,-1.6942,-1.6966,-1.699,-1.7007,-1.7008,-1.7024,-1.7016,-1.7051,-1.702,-1.7069,-1.7041,-1.7055,-1.7059,-1.7062,-1.7064,-1.7029,-1.7082,-1.7176,-1.7185,-1.7068,-1.7066,-1.7065,0,-1.6859,-1.6904,-1.6946,-1.6957,-1.6976,-1.6996,-1.7005,-1.7021,-1.7037,-1.7058,-1.7069,-1.7094,-1.7108,-1.7127,-1.7125,-1.7103,-1.7175,-1.7144,-1.7176,-1.7176,-1.7191,-1.719,-1.7287,-1.7202,-1.7202,-1.7201,-1.7201,0,-1.6932,-1.697,-1.6972,-1.6997,-1.7039,-1.7036,-1.7077,-1.7084,-1.7098,-1.7125,-1.7113,-1.7138,-1.7135,-1.716,-1.7159,-1.72,-1.7206,-1.7207,-1.7206,-1.7208,-1.7208,-1.7216,-1.7211,-1.7204,-1.7203,-1.7203,-1.7203,0,-1.7001,-1.7004,-1.7048,-1.7064,-1.7069,-1.7099,-1.7112,-1.7137,-1.714,-1.7174,-1.7182,-1.7187,-1.7217,-1.7217,-1.7251,-1.725,-1.73,-1.7294,-1.7294,-1.7292,-1.7325,-1.7321,-1.743,-1.7443,-1.735,-1.7351,-1.7352,0,-1.7046,-1.7075,-1.7094,-1.7112,-1.7122,-1.715,-1.7167,-1.7165,-1.7183,-1.7206,-1.7227,-1.7256,-1.7279,-1.7326,-1.7333,-1.7359,-1.7353,-1.739,-1.7357,-1.7358,-1.7353,-1.7351,-1.7354,-1.7396,-1.7397,-1.7397,-1.7398,0,-1.7127,-1.7128,-1.7153,-1.7179,-1.72,-1.722,-1.7239,-1.7254,-1.7254,-1.7275,-1.7305,-1.7323,-1.7358,-1.7386,-1.7412,-1.742,-1.7409,-1.7409,-1.7417,-1.7419,-1.7417,-1.7418,-1.731,-1.7406,-1.7405,-1.7404,-1.7404,-1.7404,-1.7185,-1.721,-1.7228,-1.7256,-1.7271,-1.7289,-1.7313,-1.732,-1.7345,-1.7374,-1.7371,-1.7405,-1.7422,-1.7455,-1.7466,-1.7493,-1.748,-1.7493,-1.7496,-1.7499,-1.7502,-1.7414,-1.7497,-1.7497,-1.7497,-1.7497,-1.7497,0,-1.7265,-1.7276,-1.7302,-1.7329,-1.7352,-1.7341,-1.7362,-1.7381,-1.7411,-1.7428,-1.7451,-1.7487,-1.7514,-1.7524,-1.7551,-1.757,-1.7566,-1.7577,-1.7575,-1.7577,-1.7512,-1.7501,-1.758,-1.758,-1.758,-1.758,-1.758,-1.758,-1.7309,-1.735,-1.7353,-1.7402,-1.7412,-1.7446,-1.7459,-1.7475,-1.7489,-1.7529,-1.7553,-1.7559,-1.7573,-1.7601,-1.7626,-1.7629,-1.7639,-1.7652,-1.7652,-1.759,-1.7582,-1.7574,-1.7564,-1.7655,-1.7655,-1.7715,-1.7716,-1.7716]},{"header":{"parameterUnit":"m.s-1","parameterCategory":1,"la1":30.2991,"la2":30.254,"lo1":-89.0895,"lo2":-89.0444,"dy":0.0017,"dx":0.0017,"nx":28,"ny":28,"refTime":"2025-12-14T09:00:00:Z","depth":0,"parameterNumber":3,"parameterNumberName":"V-component_of_WINDS"},"data":[0,0,0,0,0,0,0,0,0,0,0,0,0,0,0,0,0,0,0,0,0,0,0,0,0,0,0,0,0,0,0,0,0,0,0,0,0,0,0,0,0,0,0,0,0,0,0,0,0,0,0,0,0,0,0,0,0,0,-0.8981,-0.8981,0,-0.9003,-0.9003,-0.9003,-0.905,-0.9051,-0.9052,-0.9053,-0.9074,-0.9074,-0.9074,0,0,0,0,0,0,0,0,0,0,0,0,0,-0.8977,-0.8977,-0.8981,-0.8981,-0.8981,-0.9003,-0.9003,-0.9003,-0.905,-0.9051,-0.9052,-0.9053,-0.9074,-0.9074,-0.9073,0,0,0,0,0,0,0,0,0,0,0,0,0,-0.8987,-0.8977,-0.8981,-0.9007,-0.901,-0.9003,-0.9003,-0.9004,-0.9049,-0.9051,-0.9052,-0.9054,-0.9074,-0.9074,-0.9073,-0.9043,0,0,-0.9072,-0.9072,0,0,0,0,0,0,0,0,-0.8986,-0.8987,-0.9003,-0.9005,-0.9008,-0.9025,-0.901,-0.9017,-0.9049,-0.9034,-0.9053,-0.9054,-0.9057,-0.9058,-0.9059,-0.9044,-0.9044,-0.9072,-0.9072,-0.9072,-0.9071,0,0,0,0,0,0,0,-0.8985,-0.8986,-0.8989,-0.9003,-0.9006,-0.9017,-0.902,-0.9011,-0.9037,-0.9036,-0.9039,-0.9041,-0.9058,-0.9059,-0.906,-0.9045,-0.9072,-0.9072,-0.9071,-0.9071,-0.9004,-0.9003,0,0,0,0,0,0,-0.8981,-0.8985,-0.8989,-0.899,-0.9,-0.9016,-0.9019,-0.9018,-0.9037,-0.9042,-0.904,-0.9043,-0.9059,-0.906,-0.906,-0.9025,-0.9072,-0.9071,-0.9071,-0.9006,-0.9004,-0.9002,0,0,0,0,0,0,-0.8981,-0.8981,-0.8988,-0.8989,-0.899,-0.9015,-0.9013,-0.9018,-0.9019,-0.9041,-0.9045,-0.9036,-0.906,-0.9061,-0.9047,-0.9026,-0.9071,-0.9071,-0.9008,-0.9005,-0.9003,-0.8953,0,0,0,0,0,0,-0.8981,-0.8981,-0.8969,-0.8988,-0.899,-0.8974,-0.9012,-0.9017,-0.9018,-0.9022,-0.9038,-0.9042,-0.9061,-0.9047,-0.9046,-0.9026,-0.907,-0.9009,-0.9007,-0.9004,-0.8956,-0.8949,-0.8943,0,0,0,0,0,-0.898,-0.8954,-0.8969,-0.8969,-0.8977,-0.8972,-0.8974,-0.8997,-0.9016,-0.9005,-0.9019,-0.9042,-0.9029,-0.9045,-0.9044,-0.9024,-0.9011,-0.9007,-0.9004,-0.896,-0.8951,-0.8943,0,0,0,0,0,0,-0.8932,-0.8957,-0.8973,-0.8953,-0.896,-0.898,-0.8967,-0.8987,-0.8988,-0.8992,-0.9021,-0.9024,-0.9005,-0.9014,-0.9031,-0.8995,-0.9023,-0.902,-0.899,-0.8981,-0.8975,-0.8973,-0.907,0,0,0,0,0,-0.8919,-0.8914,-0.8936,-0.8916,-0.8919,-0.8942,-0.8941,-0.8958,-0.8967,-0.897,-0.8983,-0.899,-0.8988,-0.8985,-0.8984,-0.8958,-0.8962,-0.8944,-0.8937,-0.8932,-0.8928,-0.8914,-0.8906,-0.8991,-0.8991,-0.8991,0,0,-0.8892,-0.8905,-0.89,-0.8906,-0.8914,-0.8908,-0.8944,-0.8936,-0.8931,-0.8969,-0.8955,-0.8965,-0.8975,-0.8954,-0.8946,-0.8961,-0.8905,-0.8927,-0.8923,-0.8922,-0.8909,-0.8901,-0.8894,-0.8989,-0.8989,-0.899,0,0,-0.8839,-0.8849,-0.8833,-0.884,-0.8851,-0.8867,-0.8863,-0.888,-0.8888,-0.8876,-0.8903,-0.8898,-0.8893,-0.8899,-0.8901,-0.885,-0.8871,-0.8849,-0.8813,-0.8799,-0.8792,-0.8786,-0.8767,-0.876,-0.8845,-0.8845,-0.8845,0,-0.8804,-0.8796,-0.8822,-0.8812,-0.8813,-0.8847,-0.883,-0.8836,-0.8846,-0.8846,-0.8863,-0.8857,-0.8867,-0.8847,-0.8835,-0.8836,-0.8831,-0.8847,-0.8791,-0.8786,-0.8781,-0.8762,-0.8755,-0.8842,-0.8843,-0.8843,-0.8843,0,-0.8751,-0.8745,-0.873,-0.8739,-0.874,-0.8726,-0.8749,-0.8746,-0.8764,-0.8777,-0.8763,-0.8776,-0.8777,-0.8774,-0.8791,-0.8757,-0.8765,-0.8786,-0.8815,-0.8769,-0.8752,-0.8746,-0.8838,-0.8839,-0.884,-0.8841,0,0,-0.8667,-0.8692,-0.8686,-0.869,-0.8705,-0.87,-0.8688,-0.869,-0.8686,-0.8693,-0.8682,-0.8678,-0.8697,-0.8699,-0.8717,-0.8705,-0.8662,-0.8727,-0.8728,-0.8713,-0.8624,-0.8607,-0.8598,-0.8677,-0.8675,-0.8675,-0.8623,0,-0.8617,-0.8598,-0.8621,-0.8596,-0.859,-0.8623,-0.8612,-0.862,-0.8632,-0.8629,-0.8643,-0.8638,-0.8665,-0.8666,-0.8656,-0.867,-0.8644,-0.8674,-0.8666,-0.8666,-0.8661,-0.859,-0.8572,-0.8522,-0.8616,-0.8615,-0.8615,0,-0.8555,-0.8558,-0.8533,-0.8549,-0.8548,-0.8538,-0.8541,-0.8538,-0.8547,-0.8557,-0.8559,-0.8581,-0.8569,-0.8599,-0.8583,-0.8602,-0.86,-0.8607,-0.8605,-0.8604,-0.8636,-0.8585,-0.8507,-0.8499,-0.8605,-0.8606,-0.8606,0,-0.8495,-0.8493,-0.8477,-0.848,-0.8499,-0.8491,-0.8499,-0.851,-0.8509,-0.8512,-0.8512,-0.8513,-0.8514,-0.8514,-0.8535,-0.8554,-0.8516,-0.8547,-0.8522,-0.8522,-0.8512,-0.8512,-0.8431,-0.8513,-0.8513,-0.8513,-0.8513,0,-0.8435,-0.8418,-0.8451,-0.8441,-0.8422,-0.8449,-0.843,-0.8441,-0.8451,-0.8443,-0.8472,-0.8464,-0.8493,-0.8488,-0.8504,-0.8488,-0.8488,-0.8495,-0.8499,-0.8491,-0.849,-0.849,-0.8493,-0.8511,-0.8512,-0.8512,-0.8512,0,-0.8364,-0.8385,-0.837,-0.839,-0.8394,-0.838,-0.8396,-0.8387,-0.8402,-0.8392,-0.8391,-0.8414,-0.8409,-0.8431,-0.843,-0.8441,-0.8416,-0.8427,-0.8412,-0.8415,-0.8389,-0.8391,-0.8303,-0.8293,-0.8383,-0.8382,-0.8381,0,-0.8323,-0.8311,-0.8329,-0.8326,-0.8333,-0.8328,-0.8327,-0.8354,-0.8352,-0.8362,-0.8351,-0.835,-0.8349,-0.8341,-0.8357,-0.8356,-0.8366,-0.8336,-0.8366,-0.8359,-0.8364,-0.8364,-0.8362,-0.8329,-0.8328,-0.8327,-0.8326,0,-0.8249,-0.826,-0.8259,-0.8261,-0.826,-0.8263,-0.8268,-0.8264,-0.8292,-0.8288,-0.8285,-0.8284,-0.8284,-0.8281,-0.8284,-0.8291,-0.8312,-0.8317,-0.8311,-0.8302,-0.8293,-0.8296,-0.8393,-0.8318,-0.8319,-0.8319,-0.832,-0.832,-0.8191,-0.8181,-0.8192,-0.819,-0.8196,-0.82,-0.8193,-0.8207,-0.8204,-0.8206,-0.8222,-0.8214,-0.8224,-0.8229,-0.8235,-0.8229,-0.8243,-0.8235,-0.8232,-0.823,-0.8224,-0.8296,-0.823,-0.823,-0.823,-0.823,-0.823,0,-0.8117,-0.8126,-0.8123,-0.8129,-0.8127,-0.8149,-0.8155,-0.8151,-0.8145,-0.8152,-0.8151,-0.8146,-0.8144,-0.816,-0.8159,-0.8151,-0.8161,-0.815,-0.815,-0.8151,-0.8212,-0.8217,-0.8142,-0.8142,-0.8142,-0.8142,-0.8142,-0.8142,-0.8078,-0.8062,-0.8075,-0.8062,-0.8072,-0.8065,-0.8066,-0.807,-0.8076,-0.8069,-0.8067,-0.8078,-0.8088,-0.8089,-0.8087,-0.8092,-0.8089,-0.8075,-0.8082,-0.8139,-0.8147,-0.8155,-0.816,-0.8074,-0.8074,-0.8022,-0.8021,-0.8021]}]]